EUTELSAT 5 WEST B

Last updated on Tue Nov 19 2024 00:02:43 GMT+0000 (Coordinated Universal Time)

1 44624U 19067A 24323.07857789 -.00000038 00000+0 00000+0 0 9998 2 44624 0.0643 356.2560 0003611 244.5568 200.1130 1.00271354 18679
UTC large
Height (km)
Speed (km/s)
/
Latitude / Longitude
Inclination (degrees)
Orbital Period (minutes)
Azimuth
Elevation
Range (km)
Doppler Factor

Next 0 passes for location: London (51.5072 / 0.1276)

Sorry there are no passes over London.